Other Public Products
Issued by NWS Charleston, SC

Current Version | Previous Version | Graphics & Text | Print | Product List | Glossary On
Versions: 1 2 3 4 5 6 7 8 9 10 11 12 13 14 15 16 17 18 19 20 21 22 23 24 25 26 27 28 29 30 31 32 33 34 35 36 37 38 39 40 41 42 43 44 45 46 47 48 49 50
000
FPUS82 KCHS 042227
OPUCHS

TEST...KCHS/KSAV Gateway Observations...TEST
National Weather Service Charleston SC
500 PM EST SUN DEC 04 2016

NOTE: "fair" indicates few or no clouds below 12,000 feet with no
significant weather and/or obstructions to visibility.

SCZ050-WAZ558-NCZ071-TXZ119-213-PAZ071-DCZ001-FLZ074-172-MI076-
NYZ176-178-MAZ016-IL014-TNZ027-NJZ106-GAZ044-MD014-042300-
...Gateway Observations for Charleston International...

CITY           SKY/WX    TMP DP  RH WIND       PRES   REMARKS
Chas Airport   CLOUDY    57  49  74 NE10      30.11S
Seattle        MOSUNNY   43  35  73 S7        30.06S
Charlotte      CLOUDY    42  39  89 CALM      30.17F
Dallas DFW     CLOUDY    52  43  71 N13       30.02S
Dallas Love    CLOUDY    52  44  74 N8        30.03S
Philladelphia  CLOUDY    47  24  40 VRB5      30.20S
Wash National  CLOUDY    45  30  55 S7        30.20F
Baltimore      CLOUDY    42  32  67 SE3       30.19F
Miami          MOCLDY    77  68  73 SE13      30.03R
Detroit        CLOUDY    38  28  67 E6        30.02F WCI  33
Newark         CLOUDY    43  22  43 NE6       30.18S
Laguardia      MOCLDY    45  23  42 NE9       30.19S
J F K          MOCLDY    42  20  41 NE6       30.20S
Boston Logan   PTCLDY    39  19  44 N8        30.18S WCI  33
Ft. Lauderdale MOCLDY    78  68  71 SE10      30.02R
Chicago O`Hare SNOW      32  31  96 W5        29.91S VSB 1/4 WCI  27
Chicago Midway LGT SNOW  33  31  92 CALM      29.90R VSB 3/4
Houston Bush   CLOUDY    53  50  89 NE12      29.91F
Houston Hobby  CLOUDY    54  51  90 NE13      29.91F
Nashville      DRIZZLE   48  46  93 SW3       29.96R FOG
Atlanta        DRIZZLE   45  45 100 E14       30.03F FOG

$$

GAZ044-118-TXZ119-213-NCZ071-DCZ001-MDZ014-506-PAZ021-071-NJZ106-
NYZ176-178-MAZ106-OHZ011-021-055-MIZ076-KYZ091-ILZ014-INZ047-
MNZ060-042300-
...Gateway Observations for Savannah International...

CITY           SKY/WX    TMP DP  RH WIND       PRES   REMARKS
Savannah Arpt  CLOUDY    63  54  72 NE9       30.05F
Atlanta        DRIZZLE   45  45 100 E14       30.03F FOG
Charlotte      CLOUDY    42  39  89 CALM      30.17F
Dallas DFW     CLOUDY    52  43  71 N13       30.02S
Houston Bush   CLOUDY    53  50  89 NE12      29.91F
Wash National  CLOUDY    45  30  55 S7        30.20F
Wash Dulles    CLOUDY    42  27  55 S5        30.18F
Baltimore      CLOUDY    42  32  67 SE3       30.19F
Philadelphia   CLOUDY    47  24  40 VRB5      30.20S
Newark         CLOUDY    43  22  43 NE6       30.18S
Laguardia      MOCLDY    45  23  42 NE9       30.19S
J F K          MOCLDY    42  20  41 NE6       30.20S
Boston         PTCLDY    39  19  44 N8        30.18S WCI  33
Pittsburg      CLOUDY    41  29  62 E10       30.01F
Akron          CLOUDY    40  27  59 SE12      29.99F WCI  33
Cleveland      CLOUDY    41  27  57 E9        30.02F
Cincinnati     DRIZZLE   41  37  86 SE7       29.91S
Columbus       LGT RAIN  39  32  77 E5        29.94F WCI  36
Detroit        CLOUDY    38  28  67 E6        30.02F WCI  33
Chicago O`Hare SNOW      32  31  96 W5        29.91S VSB 1/4 WCI  27
Minneapolis    CLOUDY    37  32  82 SW10      29.76S WCI  30
Indianapolis   LGT RAIN  39  38  96 SE8       29.89S FOG     WCI  33

$$




USA.gov is the U.S. government's official web portal to all federal, state and local government web resources and services.